, AZ

(GMT )
Fort Huachuca

Weather History for KALK - February, 2013

Change the Weather History Date:

Saturday, February 9, 2013

  Actual Average Record
Temperature  
Mean Temperature 37 °F -  
Max Temperature 44 °F - - ()
Min Temperature 26 °F - - ()
Degree Days  
Heating Degree Days 28    
Moisture  
Dew Point 24 °F    
Average Humidity 63    
Maximum Humidity 93    
Minimum Humidity 32    
Precipitation  
Precipitation 0.00 in - - ()
Sea Level Pressure  
Sea Level Pressure 29.83 in    
Wind  
Wind Speed 16 mph (WSW)    
Max Wind Speed 24 mph    
Max Gust Speed 38 mph    
Averages and records for this station are not official NWS values.
T = Trace of Precipitation, MM = Missing Value Source: NWS Daily Summary

Daily Weather History Graph

Daily Weather History Graph

Search for Another Location

Airport or City:

Astronomy

Feb. 09, 2013 Rise Set
Actual Time 7:08 AM MST 6:03 PM MST
Civil Twilight 6:43 AM MST 6:28 PM MST
Nautical Twilight 6:14 AM MST 6:57 PM MST
Astronomical Twilight 5:46 AM MST 7:26 PM MST
Moon 6:23 AM MST (2/9) 5:47 PM MST (2/9)
Length of Visible Light 11h 45m
Length of Day
10h 55m
Waning Crescent, 0% of the Moon is Illuminated
Feb 9
Waning Crescent
Feb 10
New
Feb 17
First Quarter
Feb 25
Full
Mar 4
Last Quarter

Hourly Weather History & Observations

Time (MST) Temp. Windchill Dew Point Humidity Pressure Visibility Wind Dir Wind Speed Gust Speed Precip Events Conditions
12:56 AM 44.1 °F 37.1 °F 25.0 °F 47% 29.66 in - SW 15.0 mph 25.3 mph N/A   Clear
1:56 AM 42.1 °F 34.9 °F 21.9 °F 45% 29.66 in - SW 13.8 mph - N/A   Clear
2:56 AM 39.0 °F 30.3 °F 26.1 °F 60% 29.67 in - SW 16.1 mph 21.9 mph N/A   Clear
3:56 AM 37.9 °F 30.9 °F 28.0 °F 68% 29.68 in - WSW 10.4 mph - N/A   Mostly Cloudy
4:14 AM 39.2 °F 30.2 °F 28.4 °F 65% 29.82 in - SW 17.3 mph 21.9 mph N/A   Mostly Cloudy
4:23 AM 37.4 °F 28.2 °F 28.4 °F 70% 29.81 in - SW 16.1 mph - N/A   Mostly Cloudy
4:56 AM 39.0 °F 29.9 °F 28.9 °F 67% 29.66 in - SW 17.3 mph 24.2 mph N/A   Scattered Clouds
5:30 AM 37.4 °F 26.1 °F 32.0 °F 81% 29.82 in - WSW 24.2 mph 31.1 mph N/A Rain Light Rain
5:56 AM 36.0 °F 24.2 °F 28.0 °F 73% 29.69 in - WSW 24.2 mph 38.0 mph N/A   Overcast
6:56 AM 35.1 °F 24.8 °F 26.1 °F 70% 29.70 in - SW 17.3 mph - N/A   Partly Cloudy
7:56 AM 37.0 °F 26.2 °F 27.0 °F 67% 29.72 in - WSW 21.9 mph 29.9 mph N/A   Overcast
8:24 AM 35.6 °F 26.2 °F 30.2 °F 81% 29.87 in - West 15.0 mph - N/A Snow Light Snow
9:09 AM 30.2 °F 21.9 °F 28.4 °F 93% 29.92 in - West 9.2 mph - N/A Snow Heavy Snow
9:22 AM 30.2 °F 20.8 °F 28.4 °F 93% 29.94 in - West 11.5 mph - N/A Snow Light Snow
9:40 AM 32.0 °F 20.1 °F 28.4 °F 87% 29.94 in - West 19.6 mph 25.3 mph N/A Snow Light Snow
9:56 AM 32.0 °F 20.5 °F 28.0 °F 85% 29.84 in - West 18.4 mph - N/A Snow Light Snow
10:56 AM 36.0 °F 25.0 °F 27.0 °F 70% 29.84 in - WSW 20.7 mph 27.6 mph N/A   Overcast
11:56 AM 39.0 °F 28.3 °F 21.9 °F 50% 29.83 in - West 24.2 mph 29.9 mph N/A   Scattered Clouds
12:56 PM 39.0 °F 29.3 °F 19.9 °F 46% 29.83 in - West 19.6 mph 28.8 mph N/A   Mostly Cloudy
1:56 PM 42.1 °F 33.6 °F 18.0 °F 38% 29.82 in - WSW 18.4 mph 34.5 mph N/A   Partly Cloudy
2:56 PM 43.0 °F 33.8 °F 19.9 °F 40% 29.83 in - West 23.0 mph - N/A Rain Light Rain
3:56 PM 44.1 °F 36.2 °F 16.0 °F 32% 29.83 in - WSW 18.4 mph 26.5 mph N/A   Scattered Clouds
4:56 PM 43.0 °F 35.7 °F 18.0 °F 37% 29.85 in - WSW 15.0 mph - N/A   Scattered Clouds
5:56 PM 39.9 °F 33.4 °F 18.0 °F 41% 29.88 in - WSW 10.4 mph 20.7 mph N/A   Overcast
6:56 PM 35.1 °F 28.6 °F 19.0 °F 52% 29.92 in - SW 8.1 mph - N/A   Clear
7:56 PM 33.1 °F 24.9 °F 19.9 °F 59% 29.93 in - SW 10.4 mph - N/A   Clear
8:56 PM 33.1 °F 25.5 °F 21.0 °F 61% 29.95 in - WSW 9.2 mph - N/A   Clear
9:56 PM 30.9 °F 23.5 °F 21.0 °F 67% 29.97 in - WSW 8.1 mph - N/A   Clear
10:56 PM 30.0 °F 24.1 °F 19.9 °F 66% 29.97 in - WSW 5.8 mph - N/A   Clear
11:56 PM 26.1 °F 16.8 °F 19.0 °F 75% 29.97 in - West 9.2 mph - N/A   Clear